METEOR 1-13

导读

METEOR 1-13是独联体(CIS,继承自苏联)于1972年10月26日发射的第一代“流星”(Meteor)极轨气象卫星,属于苏联流星系列气象卫星的一员。该系列卫星1969至1977年间共发射25颗,1-13所属后期型号轨道高度约900公里,主要承担极轨气象观测任务,为全球气象研究与预报提供早期卫星数据支撑,推动了气象卫星观测体系的发展。

Basic Information
目录编号:
6256
目录名称:
METEOR 1-13
国际标识:
1972-085A
轨道中心:
EARTH
卫星名称:
METEOR 1-13
卫星全名:
--
卫星状态:
在轨 (已飞行19682 天)
发射日期:
1972-10-26 UTC
国别 :
俄罗斯(独联体) (CIS)
星等 :
--
This satellite is enrolled in the Space Conjunction Data Service (SCDS) and the current flight risk assessment level is: High Risk
Orbit Information
数据来源 国际轨道数据 AOE轨道数据
星历时间 2026-09-15T17:56:00+0800
12小时前
查看轨道信息
2026-09-14T08:00:00+0800
1天前
查看轨道信息
半长轴 7239.25km 7239.248km
偏心率 0.0024431 0.0024251
轨道倾角 81.269° 81.271°
近地点辐角 241.880° 246.281°
升交点赤经 65.383° 66.754°
平近点角 117.991° 143.272°
近地点 843.426km 843.555km
远地点 878.8km 878.667km
周期 102.165分钟 102.164分钟
每日圈数 14.094914 14.094921
Detailed Information
使用方式:
暂无
2D Orbit Map
3D Orbit Map
Orbit Altitude Analysis Chart
Orbit Inclination Analysis Chart
Orbit Comprehensive Analysis Chart
View Comprehensive Chart
Miss Distance Evolution Trend with All Objects Subscribe to Flight Safety Assessment
Collision Probability Evolution Trend with All Objects Subscribe to Flight Safety Assessment